Find PAS 8

NORAD ID: 25522 Int'l Des: 1998-065 Owner: PAN Country: US operational
HEO

当前视图

正在加载3D地球...

关于 PAS 8

正在加载描述...

即将过境

Passes for default location (London). Set your location on the main map for personalized predictions.

高度历史

Loading altitude history...

两行轨道根数

1 25522U 98065A 26149.59974536 -.00000213 00000-0 00000-0 0 9991
2 25522 9.1018 63.8149 0285849 305.9609 243.9335 0.95187233 44630
Epoch: May 29, 2026 • Age: 22 hours

当前状态

高度 38445.6 km
速度 2.94 km/s
星下点 5.13°N, 133.01°E
发射日期 Nov 4, 1998
运行时间 27.5 years
类型 other

技术详情

分类 Payload
质量 3800.00 kg
干质量 1400.00 kg
总质量 3800.00 kg
长度 6.10 m
直径 2.40 m
跨度 26.00 m
形状 Box + 2 Pan
制造商 LOR
平台类型 FS-1300
阶段状态 Unknown Active Status
所有者/国家 PAN/US

Most Searched